TURKSAT 3A

Last updated on Sun Mar 15 2026 00:02:52 GMT+0000 (Coordinated Universal Time)

1 33056U 08030B 26073.57678215 .00000145 00000+0 00000+0 0 9995 2 33056 0.0432 83.8669 0004732 297.2525 40.6841 1.00273031 51406
UTC large
Height (km)
Speed (km/s)
/
Latitude / Longitude
Inclination (degrees)
Orbital Period (minutes)
Azimuth
Elevation
Range (km)
Doppler Factor

Next 0 passes for location: London (51.5072 / 0.1276)

Sorry there are no passes over London.